Location: Molveno
(46.1500°N, 10.9667°E)
Time: 16:46:54
(UTC+00:00)

Cosmos 2333 Rocket - Pass Details

Date: 05 July 2020
Orbit: 837 x 864 km, 70.8° (Epoch: 10 August)

Event Time Altitude Azimuth Distance (km) Brightness Sun altitude
Exits shadow 20:39:20 - 193° (SSW) 3,309 4.9 -12.1°
Reaches altitude 10° 20:41:34 10° 191° (S) 2,460 4.2 -12.3°
Maximum altitude 20:47:08 62° 111° (ESE) 954 2.2 -12.9°
Drops below altitude 10° 20:52:46 10° 33° (NNE) 2,495 4.9 -13.4°
Sets 20:55:16 0° 30° (NNE) 3,439 5.7 -13.7°
